Year,Month,Day,Hour,Minute,Value (Times are PST for insolation in W/m^2)
2007,08,10,00,00,0.00
2007,08,10,00,01,0.00
2007,08,10,00,02,0.00
2007,08,10,00,03,0.00
2007,08,10,00,04,0.00
2007,08,10,00,05,0.00
2007,08,10,00,06,0.00
2007,08,10,00,07,0.00
2007,08,10,00,08,0.00
2007,08,10,00,09,0.00
2007,08,10,00,10,0.00
2007,08,10,00,11,0.00
2007,08,10,00,12,0.00
2007,08,10,00,13,0.00
2007,08,10,00,14,0.00
2007,08,10,00,15,0.00
2007,08,10,00,16,0.00
2007,08,10,00,17,0.00
2007,08,10,00,18,0.00
2007,08,10,00,19,0.00
2007,08,10,00,20,0.00
2007,08,10,00,21,0.00
2007,08,10,00,22,0.00
2007,08,10,00,23,0.00
2007,08,10,00,24,0.00
2007,08,10,00,25,0.00
2007,08,10,00,26,0.00
2007,08,10,00,27,0.00
2007,08,10,00,28,0.00
2007,08,10,00,29,0.00
2007,08,10,00,30,0.00
2007,08,10,00,31,0.00
2007,08,10,00,32,0.00
2007,08,10,00,33,0.00
2007,08,10,00,34,0.00
2007,08,10,00,35,0.00
2007,08,10,00,36,0.00
2007,08,10,00,37,0.00
2007,08,10,00,38,0.00
2007,08,10,00,39,0.00
2007,08,10,00,40,0.00
2007,08,10,00,41,0.00
2007,08,10,00,42,0.00
2007,08,10,00,43,0.00
2007,08,10,00,44,0.00
2007,08,10,00,45,0.00
2007,08,10,00,46,0.00
2007,08,10,00,47,0.00
2007,08,10,00,48,0.00
2007,08,10,00,49,0.00
2007,08,10,00,50,0.00
2007,08,10,00,51,0.00
2007,08,10,00,52,0.00
2007,08,10,00,53,0.00
2007,08,10,00,54,0.00
2007,08,10,00,55,0.00
2007,08,10,00,56,0.00
2007,08,10,00,57,0.00
2007,08,10,00,58,0.00
2007,08,10,00,59,0.00
2007,08,10,01,00,0.00
2007,08,10,01,01,0.00
2007,08,10,01,02,0.00
2007,08,10,01,03,0.00
2007,08,10,01,04,0.00
2007,08,10,01,05,0.00
2007,08,10,01,06,0.00
2007,08,10,01,07,0.00
2007,08,10,01,08,0.00
2007,08,10,01,09,0.00
2007,08,10,01,10,0.00
2007,08,10,01,11,0.00
2007,08,10,01,12,0.00
2007,08,10,01,13,0.00
2007,08,10,01,14,0.00
2007,08,10,01,15,0.00
2007,08,10,01,16,0.00
2007,08,10,01,17,0.00
2007,08,10,01,18,0.00
2007,08,10,01,19,0.00
2007,08,10,01,20,0.00
2007,08,10,01,21,0.00
2007,08,10,01,22,0.00
2007,08,10,01,23,0.00
2007,08,10,01,24,0.00
2007,08,10,01,25,0.00
2007,08,10,01,26,0.00
2007,08,10,01,27,0.00
2007,08,10,01,28,0.00
2007,08,10,01,29,0.00
2007,08,10,01,30,0.00
2007,08,10,01,31,0.00
2007,08,10,01,32,0.00
2007,08,10,01,33,0.00
2007,08,10,01,34,0.00
2007,08,10,01,35,0.00
2007,08,10,01,36,0.00
2007,08,10,01,37,0.00
2007,08,10,01,38,0.00
2007,08,10,01,39,0.00
2007,08,10,01,40,0.00
2007,08,10,01,41,0.00
2007,08,10,01,42,0.00
2007,08,10,01,43,0.00
2007,08,10,01,44,0.00
2007,08,10,01,45,0.00
2007,08,10,01,46,0.00
2007,08,10,01,47,0.00
2007,08,10,01,48,0.00
2007,08,10,01,49,0.00
2007,08,10,01,50,0.00
2007,08,10,01,51,0.00
2007,08,10,01,52,0.00
2007,08,10,01,53,0.00
2007,08,10,01,54,0.00
2007,08,10,01,55,0.00
2007,08,10,01,56,0.00
2007,08,10,01,57,0.00
2007,08,10,01,58,0.00
2007,08,10,01,59,0.00
2007,08,10,02,00,0.00
2007,08,10,02,01,0.00
2007,08,10,02,02,0.00
2007,08,10,02,03,0.00
2007,08,10,02,04,0.00
2007,08,10,02,05,0.00
2007,08,10,02,06,0.00
2007,08,10,02,07,0.00
2007,08,10,02,08,0.00
2007,08,10,02,09,0.00
2007,08,10,02,10,0.00
2007,08,10,02,11,0.00
2007,08,10,02,12,0.00
2007,08,10,02,13,0.00
2007,08,10,02,14,0.00
2007,08,10,02,15,0.00
2007,08,10,02,16,0.00
2007,08,10,02,17,0.00
2007,08,10,02,18,0.00
2007,08,10,02,19,0.00
2007,08,10,02,20,0.00
2007,08,10,02,21,0.00
2007,08,10,02,22,0.00
2007,08,10,02,23,0.00
2007,08,10,02,24,0.00
2007,08,10,02,25,0.00
2007,08,10,02,26,0.00
2007,08,10,02,27,0.00
2007,08,10,02,28,0.00
2007,08,10,02,29,0.00
2007,08,10,02,30,0.00
2007,08,10,02,31,0.00
2007,08,10,02,32,0.00
2007,08,10,02,33,0.00
2007,08,10,02,34,0.00
2007,08,10,02,35,0.00
2007,08,10,02,36,0.00
2007,08,10,02,37,0.00
2007,08,10,02,38,0.00
2007,08,10,02,39,0.00
2007,08,10,02,40,0.00
2007,08,10,02,41,0.00
2007,08,10,02,42,0.00
2007,08,10,02,43,0.00
2007,08,10,02,44,0.00
2007,08,10,02,45,0.00
2007,08,10,02,46,0.00
2007,08,10,02,47,0.00
2007,08,10,02,48,0.00
2007,08,10,02,49,0.00
2007,08,10,02,50,0.00
2007,08,10,02,51,0.00
2007,08,10,02,52,0.00
2007,08,10,02,53,0.00
2007,08,10,02,54,0.00
2007,08,10,02,55,0.00
2007,08,10,02,56,0.00
2007,08,10,02,57,0.00
2007,08,10,02,58,0.00
2007,08,10,02,59,0.00
2007,08,10,03,00,0.00
2007,08,10,03,01,0.00
2007,08,10,03,02,0.00
2007,08,10,03,03,0.00
2007,08,10,03,04,0.00
2007,08,10,03,05,0.00
2007,08,10,03,06,0.00
2007,08,10,03,07,0.00
2007,08,10,03,08,0.00
2007,08,10,03,09,0.00
2007,08,10,03,10,0.00
2007,08,10,03,11,0.00
2007,08,10,03,12,0.00
2007,08,10,03,13,0.00
2007,08,10,03,14,0.00
2007,08,10,03,15,0.00
2007,08,10,03,16,0.00
2007,08,10,03,17,0.00
2007,08,10,03,18,0.00
2007,08,10,03,19,0.00
2007,08,10,03,20,0.00
2007,08,10,03,21,0.00
2007,08,10,03,22,0.00
2007,08,10,03,23,0.00
2007,08,10,03,24,0.00
2007,08,10,03,25,0.00
2007,08,10,03,26,0.00
2007,08,10,03,27,0.00
2007,08,10,03,28,0.00
2007,08,10,03,29,0.00
2007,08,10,03,30,0.00
2007,08,10,03,31,0.00
2007,08,10,03,32,0.00
2007,08,10,03,33,0.00
2007,08,10,03,34,0.00
2007,08,10,03,35,0.00
2007,08,10,03,36,0.00
2007,08,10,03,37,0.00
2007,08,10,03,38,0.00
2007,08,10,03,39,0.00
2007,08,10,03,40,0.00
2007,08,10,03,41,0.00
2007,08,10,03,42,0.00
2007,08,10,03,43,0.00
2007,08,10,03,44,0.00
2007,08,10,03,45,0.00
2007,08,10,03,46,0.00
2007,08,10,03,47,0.00
2007,08,10,03,48,0.00
2007,08,10,03,49,0.00
2007,08,10,03,50,0.00
2007,08,10,03,51,0.00
2007,08,10,03,52,0.00
2007,08,10,03,53,0.00
2007,08,10,03,54,0.00
2007,08,10,03,55,0.00
2007,08,10,03,56,0.00
2007,08,10,03,57,0.00
2007,08,10,03,58,0.00
2007,08,10,03,59,0.00
2007,08,10,04,00,0.00
2007,08,10,04,01,0.00
2007,08,10,04,02,0.00
2007,08,10,04,03,0.00
2007,08,10,04,04,0.00
2007,08,10,04,05,0.00
2007,08,10,04,06,0.00
2007,08,10,04,07,0.00
2007,08,10,04,08,0.00
2007,08,10,04,09,0.00
2007,08,10,04,10,0.00
2007,08,10,04,11,0.00
2007,08,10,04,12,0.00
2007,08,10,04,13,0.00
2007,08,10,04,14,0.00
2007,08,10,04,15,0.00
2007,08,10,04,16,0.00
2007,08,10,04,17,0.00
2007,08,10,04,18,0.00
2007,08,10,04,19,0.00
2007,08,10,04,20,0.00
2007,08,10,04,21,0.00
2007,08,10,04,22,0.00
2007,08,10,04,23,0.00
2007,08,10,04,24,0.00
2007,08,10,04,25,0.00
2007,08,10,04,26,0.00
2007,08,10,04,27,0.00
2007,08,10,04,28,0.00
2007,08,10,04,29,0.00
2007,08,10,04,30,0.00
2007,08,10,04,31,0.00
2007,08,10,04,32,0.00
2007,08,10,04,33,0.00
2007,08,10,04,34,0.00
2007,08,10,04,35,0.00
2007,08,10,04,36,0.00
2007,08,10,04,37,0.00
2007,08,10,04,38,0.00
2007,08,10,04,39,0.00
2007,08,10,04,40,0.00
2007,08,10,04,41,0.00
2007,08,10,04,42,0.00
2007,08,10,04,43,0.00
2007,08,10,04,44,0.00
2007,08,10,04,45,0.00
2007,08,10,04,46,0.00
2007,08,10,04,47,0.00
2007,08,10,04,48,0.00
2007,08,10,04,49,0.00
2007,08,10,04,50,0.00
2007,08,10,04,51,0.00
2007,08,10,04,52,0.00
2007,08,10,04,53,0.00
2007,08,10,04,54,0.00
2007,08,10,04,55,0.00
2007,08,10,04,56,0.00
2007,08,10,04,57,0.00
2007,08,10,04,58,0.00
2007,08,10,04,59,0.00
2007,08,10,05,00,0.00
2007,08,10,05,01,0.00
2007,08,10,05,02,0.00
2007,08,10,05,03,0.00
2007,08,10,05,04,0.00
2007,08,10,05,05,0.00
2007,08,10,05,06,0.00
2007,08,10,05,07,0.00
2007,08,10,05,08,0.00
2007,08,10,05,09,0.00
2007,08,10,05,10,0.00
2007,08,10,05,11,0.00
2007,08,10,05,12,0.00
2007,08,10,05,13,0.00
2007,08,10,05,14,0.00
2007,08,10,05,15,0.00
2007,08,10,05,16,0.00
2007,08,10,05,17,0.00
2007,08,10,05,18,0.00
2007,08,10,05,19,0.00
2007,08,10,05,20,0.00
2007,08,10,05,21,0.00
2007,08,10,05,22,0.00
2007,08,10,05,23,0.00
2007,08,10,05,24,0.00
2007,08,10,05,25,0.00
2007,08,10,05,26,0.00
2007,08,10,05,27,0.00
2007,08,10,05,28,0.00
2007,08,10,05,29,0.00
2007,08,10,05,30,0.00
2007,08,10,05,31,0.00
2007,08,10,05,32,0.00
2007,08,10,05,33,0.00
2007,08,10,05,34,0.00
2007,08,10,05,35,0.00
2007,08,10,05,36,0.00
2007,08,10,05,37,0.00
2007,08,10,05,38,0.00
2007,08,10,05,39,0.00
2007,08,10,05,40,0.00
2007,08,10,05,41,0.00
2007,08,10,05,42,0.00
2007,08,10,05,43,0.00
2007,08,10,05,44,0.00
2007,08,10,05,45,0.00
2007,08,10,05,46,0.00
2007,08,10,05,47,0.00
2007,08,10,05,48,0.00
2007,08,10,05,49,0.00
2007,08,10,05,50,0.00
2007,08,10,05,51,0.00
2007,08,10,05,52,0.00
2007,08,10,05,53,0.00
2007,08,10,05,54,0.00
2007,08,10,05,55,0.00
2007,08,10,05,56,0.00
2007,08,10,05,57,0.00
2007,08,10,05,58,0.00
2007,08,10,05,59,0.00
2007,08,10,06,00,0.00
2007,08,10,06,01,0.00
2007,08,10,06,02,0.00
2007,08,10,06,03,0.00
2007,08,10,06,04,0.00
2007,08,10,06,05,0.00
2007,08,10,06,06,0.00
2007,08,10,06,07,0.00
2007,08,10,06,08,0.00
2007,08,10,06,09,0.00
2007,08,10,06,10,0.00
2007,08,10,06,11,0.00
2007,08,10,06,12,0.00
2007,08,10,06,13,0.00
2007,08,10,06,14,0.00
2007,08,10,06,15,0.00
2007,08,10,06,16,0.00
2007,08,10,06,17,0.00
2007,08,10,06,18,0.00
2007,08,10,06,19,0.00
2007,08,10,06,20,0.00
2007,08,10,06,21,4.20
2007,08,10,06,22,5.00
2007,08,10,06,23,5.00
2007,08,10,06,24,5.00
2007,08,10,06,25,5.00
2007,08,10,06,26,5.00
2007,08,10,06,27,5.20
2007,08,10,06,28,7.00
2007,08,10,06,29,7.00
2007,08,10,06,30,7.40
2007,08,10,06,31,9.50
2007,08,10,06,32,11.00
2007,08,10,06,33,11.40
2007,08,10,06,34,12.70
2007,08,10,06,35,14.80
2007,08,10,06,36,16.90
2007,08,10,06,37,18.50
2007,08,10,06,38,20.10
2007,08,10,06,39,22.20
2007,08,10,06,40,24.20
2007,08,10,06,41,25.00
2007,08,10,06,42,25.00
2007,08,10,06,43,25.00
2007,08,10,06,44,25.00
2007,08,10,06,45,25.00
2007,08,10,06,46,25.90
2007,08,10,06,47,28.00
2007,08,10,06,48,28.00
2007,08,10,06,49,30.10
2007,08,10,06,50,32.10
2007,08,10,06,51,33.00
2007,08,10,06,52,33.30
2007,08,10,06,53,35.40
2007,08,10,06,54,37.00
2007,08,10,06,55,37.60
2007,08,10,06,56,39.30
2007,08,10,06,57,40.70
2007,08,10,06,58,43.60
2007,08,10,06,59,47.40
2007,08,10,07,00,50.10
2007,08,10,07,01,51.00
2007,08,10,07,02,52.20
2007,08,10,07,03,51.70
2007,08,10,07,04,51.00
2007,08,10,07,05,49.50
2007,08,10,07,06,47.40
2007,08,10,07,07,46.20
2007,08,10,07,08,46.00
2007,08,10,07,09,46.00
2007,08,10,07,10,46.00
2007,08,10,07,11,44.10
2007,08,10,07,12,43.90
2007,08,10,07,13,42.00
2007,08,10,07,14,42.20
2007,08,10,07,15,44.50
2007,08,10,07,16,47.40
2007,08,10,07,17,50.10
2007,08,10,07,18,53.30
2007,08,10,07,19,54.00
2007,08,10,07,20,54.00
2007,08,10,07,21,53.60
2007,08,10,07,22,53.00
2007,08,10,07,23,53.00
2007,08,10,07,24,53.60
2007,08,10,07,25,55.10
2007,08,10,07,26,56.00
2007,08,10,07,27,56.00
2007,08,10,07,28,54.60
2007,08,10,07,29,55.50
2007,08,10,07,30,54.30
2007,08,10,07,31,54.00
2007,08,10,07,32,54.00
2007,08,10,07,33,54.00
2007,08,10,07,34,58.00
2007,08,10,07,35,58.00
2007,08,10,07,36,58.00
2007,08,10,07,37,58.20
2007,08,10,07,38,61.30
2007,08,10,07,39,69.20
2007,08,10,07,40,69.80
2007,08,10,07,41,68.40
2007,08,10,07,42,70.20
2007,08,10,07,43,78.90
2007,08,10,07,44,89.90
2007,08,10,07,45,98.00
2007,08,10,07,46,158.50
2007,08,10,07,47,223.40
2007,08,10,07,48,243.00
2007,08,10,07,49,238.40
2007,08,10,07,50,231.30
2007,08,10,07,51,255.10
2007,08,10,07,52,270.50
2007,08,10,07,53,277.50
2007,08,10,07,54,279.00
2007,08,10,07,55,280.70
2007,08,10,07,56,284.80
2007,08,10,07,57,291.70
2007,08,10,07,58,287.60
2007,08,10,07,59,299.30
2007,08,10,08,00,302.60
2007,08,10,08,01,296.80
2007,08,10,08,02,248.40
2007,08,10,08,03,264.00
2007,08,10,08,04,306.00
2007,08,10,08,05,306.00
2007,08,10,08,06,246.80
2007,08,10,08,07,200.10
2007,08,10,08,08,258.00
2007,08,10,08,09,183.50
2007,08,10,08,10,109.00
2007,08,10,08,11,154.60
2007,08,10,08,12,205.60
2007,08,10,08,13,182.90
2007,08,10,08,14,145.40
2007,08,10,08,15,151.20
2007,08,10,08,16,150.50
2007,08,10,08,17,149.00
2007,08,10,08,18,275.20
2007,08,10,08,19,291.80
2007,08,10,08,20,332.00
2007,08,10,08,21,338.00
2007,08,10,08,22,338.00
2007,08,10,08,23,338.00
2007,08,10,08,24,340.40
2007,08,10,08,25,343.60
2007,08,10,08,26,302.60
2007,08,10,08,27,272.90
2007,08,10,08,28,213.60
2007,08,10,08,29,162.80
2007,08,10,08,30,130.90
2007,08,10,08,31,162.80
2007,08,10,08,32,201.50
2007,08,10,08,33,168.10
2007,08,10,08,34,137.00
2007,08,10,08,35,303.70
2007,08,10,08,36,385.70
2007,08,10,08,37,382.20
2007,08,10,08,38,384.20
2007,08,10,08,39,383.30
2007,08,10,08,40,380.60
2007,08,10,08,41,380.90
2007,08,10,08,42,381.00
2007,08,10,08,43,381.00
2007,08,10,08,44,383.00
2007,08,10,08,45,387.00
2007,08,10,08,46,389.30
2007,08,10,08,47,396.60
2007,08,10,08,48,400.60
2007,08,10,08,49,408.20
2007,08,10,08,50,416.50
2007,08,10,08,51,421.70
2007,08,10,08,52,426.60
2007,08,10,08,53,429.00
2007,08,10,08,54,430.00
2007,08,10,08,55,431.50
2007,08,10,08,56,434.20
2007,08,10,08,57,439.00
2007,08,10,08,58,445.70
2007,08,10,08,59,449.30
2007,08,10,09,00,456.30
2007,08,10,09,01,462.80
2007,08,10,09,02,468.20
2007,08,10,09,03,469.00
2007,08,10,09,04,475.00
2007,08,10,09,05,454.40
2007,08,10,09,06,487.10
2007,08,10,09,07,392.00
2007,08,10,09,08,392.00
2007,08,10,09,09,392.00
2007,08,10,09,10,392.00
2007,08,10,09,11,356.40
2007,08,10,09,12,235.10
2007,08,10,09,13,260.00
2007,08,10,09,14,190.00
2007,08,10,09,15,304.70
2007,08,10,09,16,484.20
2007,08,10,09,17,482.50
2007,08,10,09,18,482.50
2007,08,10,09,19,483.00
2007,08,10,09,20,484.20
2007,08,10,09,21,486.40
2007,08,10,09,22,489.20
2007,08,10,09,23,490.00
2007,08,10,09,24,490.00
2007,08,10,09,25,493.20
2007,08,10,09,26,495.80
2007,08,10,09,27,498.50
2007,08,10,09,28,499.00
2007,08,10,09,29,503.00
2007,08,10,09,30,504.10
2007,08,10,09,31,506.20
2007,08,10,09,32,508.30
2007,08,10,09,33,510.40
2007,08,10,09,34,512.20
2007,08,10,09,35,514.00
2007,08,10,09,36,517.80
2007,08,10,09,37,520.70
2007,08,10,09,38,523.60
2007,08,10,09,39,527.40
2007,08,10,09,40,531.00
2007,08,10,09,41,537.60
2007,08,10,09,42,543.20
2007,08,10,09,43,550.40
2007,08,10,09,44,557.30
2007,08,10,09,45,562.30
2007,08,10,09,46,568.40
2007,08,10,09,47,573.90
2007,08,10,09,48,576.60
2007,08,10,09,49,579.70
2007,08,10,09,50,583.40
2007,08,10,09,51,584.00
2007,08,10,09,52,581.70
2007,08,10,09,53,577.10
2007,08,10,09,54,578.90
2007,08,10,09,55,587.60
2007,08,10,09,56,590.70
2007,08,10,09,57,589.00
2007,08,10,09,58,588.50
2007,08,10,09,59,587.00
2007,08,10,10,00,587.70
2007,08,10,10,01,589.00
2007,08,10,10,02,589.00
2007,08,10,10,03,590.00
2007,08,10,10,04,591.00
2007,08,10,10,05,592.70
2007,08,10,10,06,597.10
2007,08,10,10,07,600.20
2007,08,10,10,08,602.50
2007,08,10,10,09,605.30
2007,08,10,10,10,611.20
2007,08,10,10,11,614.70
2007,08,10,10,12,618.60
2007,08,10,10,13,623.70
2007,08,10,10,14,625.80
2007,08,10,10,15,624.00
2007,08,10,10,16,624.00
2007,08,10,10,17,624.20
2007,08,10,10,18,626.30
2007,08,10,10,19,628.20
2007,08,10,10,20,629.00
2007,08,10,10,21,628.80
2007,08,10,10,22,629.50
2007,08,10,10,23,634.00
2007,08,10,10,24,634.80
2007,08,10,10,25,633.00
2007,08,10,10,26,633.00
2007,08,10,10,27,642.50
2007,08,10,10,28,655.80
2007,08,10,10,29,661.90
2007,08,10,10,30,666.50
2007,08,10,10,31,672.50
2007,08,10,10,32,678.90
2007,08,10,10,33,602.60
2007,08,10,10,34,582.00
2007,08,10,10,35,680.40
2007,08,10,10,36,712.70
2007,08,10,10,37,721.00
2007,08,10,10,38,730.50
2007,08,10,10,39,742.50
2007,08,10,10,40,752.50
2007,08,10,10,41,761.90
2007,08,10,10,42,764.50
2007,08,10,10,43,751.60
2007,08,10,10,44,787.50
2007,08,10,10,45,791.30
2007,08,10,10,46,744.70
2007,08,10,10,47,713.40
2007,08,10,10,48,768.10
2007,08,10,10,49,803.00
2007,08,10,10,50,658.00
2007,08,10,10,51,527.50
2007,08,10,10,52,527.70
2007,08,10,10,53,506.40
2007,08,10,10,54,499.00
2007,08,10,10,55,499.00
2007,08,10,10,56,571.80
2007,08,10,10,57,596.00
2007,08,10,10,58,596.00
2007,08,10,10,59,596.00
2007,08,10,11,00,577.10
2007,08,10,11,01,575.00
2007,08,10,11,02,668.20
2007,08,10,11,03,596.70
2007,08,10,11,04,679.80
2007,08,10,11,05,646.30
2007,08,10,11,06,614.80
2007,08,10,11,07,631.20
2007,08,10,11,08,589.10
2007,08,10,11,09,631.30
2007,08,10,11,10,649.00
2007,08,10,11,11,663.30
2007,08,10,11,12,715.00
2007,08,10,11,13,715.00
2007,08,10,11,14,597.10
2007,08,10,11,15,538.00
2007,08,10,11,16,570.00
2007,08,10,11,17,640.50
2007,08,10,11,18,661.90
2007,08,10,11,19,659.00
2007,08,10,11,20,659.00
2007,08,10,11,21,523.80
2007,08,10,11,22,492.00
2007,08,10,11,23,492.00
2007,08,10,11,24,492.00
2007,08,10,11,25,495.10
2007,08,10,11,26,557.70
2007,08,10,11,27,572.50
2007,08,10,11,28,522.00
2007,08,10,11,29,522.00
2007,08,10,11,30,522.00
2007,08,10,11,31,522.00
2007,08,10,11,32,554.30
2007,08,10,11,33,609.80
2007,08,10,11,34,590.10
2007,08,10,11,35,582.00
2007,08,10,11,36,582.00
2007,08,10,11,37,582.00
2007,08,10,11,38,725.40
2007,08,10,11,39,809.00
2007,08,10,11,40,669.00
2007,08,10,11,41,593.10
2007,08,10,11,42,565.40
2007,08,10,11,43,578.50
2007,08,10,11,44,590.10
2007,08,10,11,45,622.50
2007,08,10,11,46,559.00
2007,08,10,11,47,559.00
2007,08,10,11,48,581.50
2007,08,10,11,49,663.00
2007,08,10,11,50,640.70
2007,08,10,11,51,505.30
2007,08,10,11,52,411.80
2007,08,10,11,53,384.00
2007,08,10,11,54,413.30
2007,08,10,11,55,427.00
2007,08,10,11,56,609.00
2007,08,10,11,57,894.20
2007,08,10,11,58,897.70
2007,08,10,11,59,908.30
2007,08,10,12,00,914.00
2007,08,10,12,01,772.10
2007,08,10,12,02,597.30
2007,08,10,12,03,568.00
2007,08,10,12,04,568.00
2007,08,10,12,05,744.10
2007,08,10,12,06,775.00
2007,08,10,12,07,733.50
2007,08,10,12,08,729.00
2007,08,10,12,09,524.40
2007,08,10,12,10,581.60
2007,08,10,12,11,592.70
2007,08,10,12,12,738.00
2007,08,10,12,13,738.00
2007,08,10,12,14,735.20
2007,08,10,12,15,714.60
2007,08,10,12,16,668.80
2007,08,10,12,17,626.00
2007,08,10,12,18,648.30
2007,08,10,12,19,603.00
2007,08,10,12,20,601.10
2007,08,10,12,21,602.00
2007,08,10,12,22,638.00
2007,08,10,12,23,645.20
2007,08,10,12,24,595.30
2007,08,10,12,25,577.00
2007,08,10,12,26,577.00
2007,08,10,12,27,517.50
2007,08,10,12,28,516.00
2007,08,10,12,29,560.70
2007,08,10,12,30,629.60
2007,08,10,12,31,645.00
2007,08,10,12,32,428.10
2007,08,10,12,33,404.00
2007,08,10,12,34,420.00
2007,08,10,12,35,420.00
2007,08,10,12,36,420.00
2007,08,10,12,37,501.80
2007,08,10,12,38,909.70
2007,08,10,12,39,899.80
2007,08,10,12,40,882.50
2007,08,10,12,41,879.00
2007,08,10,12,42,881.10
2007,08,10,12,43,876.40
2007,08,10,12,44,842.50
2007,08,10,12,45,864.40
2007,08,10,12,46,911.10
2007,08,10,12,47,918.00
2007,08,10,12,48,924.20
2007,08,10,12,49,927.50
2007,08,10,12,50,935.70
2007,08,10,12,51,950.20
2007,08,10,12,52,966.60
2007,08,10,12,53,994.90
2007,08,10,12,54,998.00
2007,08,10,12,55,998.00
2007,08,10,12,56,424.20
2007,08,10,12,57,411.80
2007,08,10,12,58,390.60
2007,08,10,12,59,398.70
2007,08,10,13,00,421.20
2007,08,10,13,01,462.00
2007,08,10,13,02,497.20
2007,08,10,13,03,589.10
2007,08,10,13,04,568.10
2007,08,10,13,05,569.40
2007,08,10,13,06,513.40
2007,08,10,13,07,456.50
2007,08,10,13,08,438.00
2007,08,10,13,09,440.50
2007,08,10,13,10,457.90
2007,08,10,13,11,469.00
2007,08,10,13,12,545.60
2007,08,10,13,13,554.00
2007,08,10,13,14,545.00
2007,08,10,13,15,666.70
2007,08,10,13,16,691.00
2007,08,10,13,17,462.40
2007,08,10,13,18,420.00
2007,08,10,13,19,420.00
2007,08,10,13,20,420.00
2007,08,10,13,21,451.50
2007,08,10,13,22,725.20
2007,08,10,13,23,758.00
2007,08,10,13,24,758.00
2007,08,10,13,25,758.00
2007,08,10,13,26,758.00
2007,08,10,13,27,758.00
2007,08,10,13,28,758.00
2007,08,10,13,29,758.00
2007,08,10,13,30,627.00
2007,08,10,13,31,508.60
2007,08,10,13,32,520.00
2007,08,10,13,33,520.00
2007,08,10,13,34,520.00
2007,08,10,13,35,874.90
2007,08,10,13,36,1015.80
2007,08,10,13,37,1005.50
2007,08,10,13,38,998.90
2007,08,10,13,39,998.00
2007,08,10,13,40,920.70
2007,08,10,13,41,907.00
2007,08,10,13,42,585.00
2007,08,10,13,43,610.80
2007,08,10,13,44,1102.00
2007,08,10,13,45,1102.00
2007,08,10,13,46,998.20
2007,08,10,13,47,401.40
2007,08,10,13,48,364.30
2007,08,10,13,49,355.50
2007,08,10,13,50,356.40
2007,08,10,13,51,353.10
2007,08,10,13,52,348.40
2007,08,10,13,53,349.30
2007,08,10,13,54,356.90
2007,08,10,13,55,368.10
2007,08,10,13,56,378.40
2007,08,10,13,57,383.70
2007,08,10,13,58,391.50
2007,08,10,13,59,400.30
2007,08,10,14,00,443.30
2007,08,10,14,01,454.00
2007,08,10,14,02,454.00
2007,08,10,14,03,454.00
2007,08,10,14,04,1131.40
2007,08,10,14,05,1169.00
2007,08,10,14,06,887.00
2007,08,10,14,07,807.00
2007,08,10,14,08,775.10
2007,08,10,14,09,512.70
2007,08,10,14,10,466.80
2007,08,10,14,11,450.00
2007,08,10,14,12,655.90
2007,08,10,14,13,1083.30
2007,08,10,14,14,1035.50
2007,08,10,14,15,1013.90
2007,08,10,14,16,1012.00
2007,08,10,14,17,1013.00
2007,08,10,14,18,1013.00
2007,08,10,14,19,1013.00
2007,08,10,14,20,1013.00
2007,08,10,14,21,1006.70
2007,08,10,14,22,1004.00
2007,08,10,14,23,1004.00
2007,08,10,14,24,396.00
2007,08,10,14,25,260.00
2007,08,10,14,26,262.00
2007,08,10,14,27,262.00
2007,08,10,14,28,262.00
2007,08,10,14,29,294.50
2007,08,10,14,30,944.00
2007,08,10,14,31,944.00
2007,08,10,14,32,944.00
2007,08,10,14,33,940.00
2007,08,10,14,34,919.00
2007,08,10,14,35,893.40
2007,08,10,14,36,876.40
2007,08,10,14,37,869.10
2007,08,10,14,38,862.60
2007,08,10,14,39,858.90
2007,08,10,14,40,860.60
2007,08,10,14,41,866.90
2007,08,10,14,42,861.20
2007,08,10,14,43,856.00
2007,08,10,14,44,858.90
2007,08,10,14,45,860.00
2007,08,10,14,46,854.80
2007,08,10,14,47,842.20
2007,08,10,14,48,832.60
2007,08,10,14,49,824.40
2007,08,10,14,50,823.00
2007,08,10,14,51,821.00
2007,08,10,14,52,815.80
2007,08,10,14,53,811.80
2007,08,10,14,54,808.60
2007,08,10,14,55,805.60
2007,08,10,14,56,812.40
2007,08,10,14,57,821.90
2007,08,10,14,58,813.90
2007,08,10,14,59,804.50
2007,08,10,15,00,794.70
2007,08,10,15,01,800.10
2007,08,10,15,02,810.50
2007,08,10,15,03,814.00
2007,08,10,15,04,827.50
2007,08,10,15,05,855.70
2007,08,10,15,06,883.80
2007,08,10,15,07,898.60
2007,08,10,15,08,898.60
2007,08,10,15,09,891.20
2007,08,10,15,10,896.20
2007,08,10,15,11,894.00
2007,08,10,15,12,893.00
2007,08,10,15,13,893.00
2007,08,10,15,14,840.00
2007,08,10,15,15,840.00
2007,08,10,15,16,840.00
2007,08,10,15,17,841.70
2007,08,10,15,18,851.00
2007,08,10,15,19,851.00
2007,08,10,15,20,851.00
2007,08,10,15,21,859.70
2007,08,10,15,22,880.70
2007,08,10,15,23,901.20
2007,08,10,15,24,930.90
2007,08,10,15,25,937.00
2007,08,10,15,26,932.00
2007,08,10,15,27,928.20
2007,08,10,15,28,922.60
2007,08,10,15,29,918.90
2007,08,10,15,30,908.60
2007,08,10,15,31,898.00
2007,08,10,15,32,892.00
2007,08,10,15,33,877.50
2007,08,10,15,34,875.00
2007,08,10,15,35,875.00
2007,08,10,15,36,874.10
2007,08,10,15,37,856.00
2007,08,10,15,38,866.80
2007,08,10,15,39,859.10
2007,08,10,15,40,823.80
2007,08,10,15,41,804.20
2007,08,10,15,42,749.40
2007,08,10,15,43,691.00
2007,08,10,15,44,691.00
2007,08,10,15,45,691.00
2007,08,10,15,46,691.00
2007,08,10,15,47,495.60
2007,08,10,15,48,227.00
2007,08,10,15,49,227.00
2007,08,10,15,50,227.00
2007,08,10,15,51,227.00
2007,08,10,15,52,615.60
2007,08,10,15,53,785.40
2007,08,10,15,54,782.00
2007,08,10,15,55,335.30
2007,08,10,15,56,246.00
2007,08,10,15,57,246.00
2007,08,10,15,58,274.30
2007,08,10,15,59,267.00
2007,08,10,16,00,251.80
2007,08,10,16,01,265.00
2007,08,10,16,02,284.30
2007,08,10,16,03,316.00
2007,08,10,16,04,316.00
2007,08,10,16,05,397.10
2007,08,10,16,06,701.00
2007,08,10,16,07,705.00
2007,08,10,16,08,715.00
2007,08,10,16,09,516.30
2007,08,10,16,10,243.00
2007,08,10,16,11,243.00
2007,08,10,16,12,243.00
2007,08,10,16,13,243.00
2007,08,10,16,14,243.00
2007,08,10,16,15,243.00
2007,08,10,16,16,643.80
2007,08,10,16,17,790.60
2007,08,10,16,18,788.00
2007,08,10,16,19,788.00
2007,08,10,16,20,312.40
2007,08,10,16,21,257.20
2007,08,10,16,22,277.80
2007,08,10,16,23,279.00
2007,08,10,16,24,279.00
2007,08,10,16,25,279.00
2007,08,10,16,26,276.50
2007,08,10,16,27,255.00
2007,08,10,16,28,255.00
2007,08,10,16,29,361.20
2007,08,10,16,30,676.40
2007,08,10,16,31,663.60
2007,08,10,16,32,650.50
2007,08,10,16,33,643.00
2007,08,10,16,34,640.50
2007,08,10,16,35,638.00
2007,08,10,16,36,635.10
2007,08,10,16,37,641.80
2007,08,10,16,38,647.00
2007,08,10,16,39,633.30
2007,08,10,16,40,633.60
2007,08,10,16,41,630.80
2007,08,10,16,42,628.20
2007,08,10,16,43,618.20
2007,08,10,16,44,617.00
2007,08,10,16,45,627.90
2007,08,10,16,46,629.00
2007,08,10,16,47,606.80
2007,08,10,16,48,208.00
2007,08,10,16,49,225.70
2007,08,10,16,50,247.20
2007,08,10,16,51,311.10
2007,08,10,16,52,315.80
2007,08,10,16,53,281.50
2007,08,10,16,54,248.00
2007,08,10,16,55,299.30
2007,08,10,16,56,380.00
2007,08,10,16,57,380.00
2007,08,10,16,58,380.00
2007,08,10,16,59,484.40
2007,08,10,17,00,569.70
2007,08,10,17,01,556.60
2007,08,10,17,02,528.90
2007,08,10,17,03,522.00
2007,08,10,17,04,400.50
2007,08,10,17,05,388.30
2007,08,10,17,06,394.00
2007,08,10,17,07,510.50
2007,08,10,17,08,501.00
2007,08,10,17,09,442.10
2007,08,10,17,10,469.70
2007,08,10,17,11,410.00